Погода в Орте

Португалия     38°32′10″N   28°37′47″W
темп.,
°C
ветер,
м/с
пор.,
м/с
влажн.,
%
обл.,
%
осадки,
мм/ч
давл.,
гПа
погр.,
м
28 июля, ср
ср2800:00+22св588524 0.0 1029207
03:00+22св588878 0.1 1027280
06:00+22св579047 0.1 1026361
09:00+22св45877 0.0 1027165
12:00+22ссв4685100 0.1 1028256
15:00+23ссв578313 0.0 1028320
18:00+23ссв4679100 0.0 1027319
21:00+23ссв458183 0.0 1027149
29 июля, чт
чт2900:00+23ссв457962 0.0 102884
03:00+23св567870 0.0 1027135
06:00+23св447681 0.0 102668
09:00+23ссв457787 0.0 102776
12:00+23ссв457685 0.1 1028112
15:00+23с347643 0.0 1027179
18:00+23ссв34741 0.0 1027298
21:00+22ссв56842 0.0 1028347
30 июля, пт
пт3000:00+22ссв46862 0.0 1028342
03:00+21ссв45845 0.0 1027417
06:00+21ссв34840 0.0 1027383
09:00+21ссв34840 0.0 1029407
12:00+21с23830 0.0 1029306
15:00+22с34790 0.0 1029375
18:00+22с34773 0.0 1029424
21:00+22ссв348036 0.0 1029342
31 июля, сб
сб3100:00+22ссв35845 0.0 1030335
03:00+21св23825 0.0 1030256
06:00+21с228257 0.0 1029222
09:00+21с22805 0.0 1030221
12:00+22с22785 0.0 1031238
15:00+22сз23742 0.0 1030317
18:00+23ссз33725 0.0 1030390
21:00+22ссз34775 0.0 1031202
1 августа, вс
вс100:00+22ссз22835 0.0 103171
03:00+22зсз34860 0.0 1030256
06:00+22зсз468845 0.0 1029445
09:00+22зсз578990 0.0 1030450
12:00+22зсз578919 0.0 1030403
15:00+22сз599098 0.0 1029402
18:00+22сз599332 0.0 1029430
21:00+23ссз699494 0.1 1029375